Location: Sabalos
(43.2860°N, 0.1414°E)
Time: 08:35:37
(UTC+00:00)

IRIDIUM 103 - Pass Details

Date: 05 July 2020
Orbit: 776 x 779 km, 86.4° (Epoch: 14 August)

Event Time Altitude Azimuth Distance (km) Brightness Sun altitude
Exits shadow 23:41:34 64° 191° (SSW) 864 4.2 -23.8°
Maximum altitude 23:42:25 86° 272° (W) 788 4.2 -23.9°
Drops below altitude 10° 23:47:40 10° 2° (N) 2,342 7.9 -23.9°
Sets 23:50:02 0° 3° (N) 3,274 9.0 -24.0°
